• en France
  • Liste des pays
  • À 7 jours
  • Température de l'eau
  • Carte satellitaire
  • Carte météo
  • Widgets météo
  • user-avatar
    Se connecter

    Météo par heure à Obrezki

    Ce jour, 22 Mai, Mardi

    Heure Température Précipitation Vent Pression Humidité
    00:00 +12°C° 0 mm 4 m/s 757 mmHg 67%
    01:00 +12°C° 0 mm 4 m/s 757 mmHg 66%
    02:00 +12°C° 0 mm 4 m/s 758 mmHg 65%
    03:00 +12°C° 0 mm 4 m/s 757 mmHg 64%
    04:00 +12°C° 0,1 mm 4 m/s 758 mmHg 67%
    05:00 +12°C° 0,1 mm 4 m/s 758 mmHg 69%
    06:00 +12°C° 0,1 mm 5 m/s 758 mmHg 71%
    07:00 +12°C° 0,3 mm 4 m/s 758 mmHg 74%
    08:00 +12°C° 0,3 mm 4 m/s 758 mmHg 76%
    09:00 +13°C° 0 mm 5 m/s 758 mmHg 76%
    10:00 +14°C° 0 mm 5 m/s 758 mmHg 73%
    11:00 +16°C° 0 mm 5 m/s 758 mmHg 70%
    12:00 +19°C° 0 mm 5 m/s 758 mmHg 67%
    13:00 +20°C° 0 mm 5 m/s 758 mmHg 67%
    14:00 +21°C° 0 mm 5 m/s 758 mmHg 66%
    15:00 +22°C° 0 mm 5 m/s 758 mmHg 63%
    16:00 +22°C° 0 mm 4 m/s 757 mmHg 66%
    17:00 +22°C° 0 mm 4 m/s 757 mmHg 70%
    18:00 +22°C° 0 mm 3 m/s 757 mmHg 73%
    19:00 +20°C° 0 mm 3 m/s 757 mmHg 78%
    20:00 +19°C° 0 mm 3 m/s 757 mmHg 82%
    21:00 +18°C° 0 mm 2 m/s 757 mmHg 87%
    22:00 +17°C° 0,1 mm 2 m/s 757 mmHg 87%
    23:00 +17°C° 0,1 mm 2 m/s 757 mmHg 87%

    Demain, 23 Mai, Mercredi

    Heure Température Précipitation Vent Pression Humidité
    00:00 +17°C° 0,1 mm 2 m/s 757 mmHg 88%
    01:00 +16°C° 0,5 mm 2 m/s 757 mmHg 89%
    02:00 +16°C° 0,5 mm 2 m/s 757 mmHg 91%
    03:00 +15°C° 0,5 mm 2 m/s 756 mmHg 92%
    04:00 +16°C° 0,7 mm 3 m/s 756 mmHg 93%
    05:00 +16°C° 0,7 mm 3 m/s 756 mmHg 93%
    06:00 +16°C° 0,7 mm 3 m/s 756 mmHg 94%
    07:00 +17°C° 0 mm 3 m/s 756 mmHg 92%
    08:00 +18°C° 0 mm 3 m/s 756 mmHg 91%
    09:00 +18°C° 0 mm 2 m/s 756 mmHg 90%
    10:00 +19°C° 0 mm 2 m/s 756 mmHg 87%
    11:00 +20°C° 0 mm 2 m/s 756 mmHg 84%
    12:00 +21°C° 0 mm 2 m/s 755 mmHg 81%
    13:00 +23°C° 0,1 mm 2 m/s 755 mmHg 78%
    14:00 +23°C° 0,1 mm 2 m/s 755 mmHg 76%
    15:00 +24°C° 0,1 mm 2 m/s 755 mmHg 73%
    16:00 +24°C° 0,4 mm 2 m/s 755 mmHg 75%
    17:00 +24°C° 0,4 mm 1 m/s 754 mmHg 77%
    18:00 +23°C° 0,4 mm 1 m/s 754 mmHg 79%
    19:00 +22°C° 0,5 mm 1 m/s 754 mmHg 83%
    20:00 +21°C° 0,5 mm 1 m/s 754 mmHg 87%
    21:00 +19°C° 0,5 mm 1 m/s 754 mmHg 92%
    22:00 +19°C° 0,3 mm 1 m/s 754 mmHg 92%
    23:00 +18°C° 0,3 mm 1 m/s 754 mmHg 92%

    Après-demain, 24 Mai, Jeudi

    Heure Température Précipitation Vent Pression Humidité
    00:00 +18°C° 0,3 mm 1 m/s 753 mmHg 92%
    01:00 +18°C° 0,1 mm 1 m/s 753 mmHg 92%
    02:00 +16°C° 0,1 mm 1 m/s 753 mmHg 93%
    03:00 +16°C° 0,1 mm 1 m/s 753 mmHg 93%
    04:00 +16°C° 0 mm 1 m/s 753 mmHg 92%
    05:00 +16°C° 0 mm 1 m/s 753 mmHg 92%
    06:00 +16°C° 0 mm 2 m/s 753 mmHg 91%
    07:00 +18°C° 0 mm 2 m/s 753 mmHg 87%
    08:00 +19°C° 0 mm 2 m/s 753 mmHg 83%
    09:00 +21°C° 0 mm 1 m/s 753 mmHg 79%
    10:00 +21°C° 0,1 mm 2 m/s 753 mmHg 75%
    11:00 +23°C° 0,1 mm 2 m/s 752 mmHg 71%
    12:00 +24°C° 0,1 mm 2 m/s 752 mmHg 67%
    13:00 +25°C° 0,4 mm 3 m/s 752 mmHg 66%
    14:00 +25°C° 0,4 mm 3 m/s 752 mmHg 65%
    15:00 +25°C° 0,4 mm 4 m/s 751 mmHg 64%
    16:00 +25°C° 0,5 mm 3 m/s 751 mmHg 68%
    17:00 +24°C° 0,5 mm 3 m/s 751 mmHg 71%
    18:00 +24°C° 0,5 mm 3 m/s 751 mmHg 74%
    19:00 +21°C° 0 mm 3 m/s 751 mmHg 78%
    20:00 +20°C° 0 mm 3 m/s 751 mmHg 82%
    21:00 +18°C° 0 mm 3 m/s 751 mmHg 85%
    22:00 +17°C° 0 mm 3 m/s 751 mmHg 86%
    23:00 +17°C° 0 mm 3 m/s 751 mmHg 86%

    25 Mai, Vendredi

    Heure Température Précipitation Vent Pression Humidité
    00:00 +15°C° 0 mm 4 m/s 751 mmHg 87%
    01:00 +15°C° 0 mm 4 m/s 752 mmHg 87%
    02:00 +14°C° 0 mm 5 m/s 752 mmHg 87%
    03:00 +14°C° 0 mm 5 m/s 752 mmHg 87%
    04:00 +13°C° 0 mm 6 m/s 753 mmHg 84%
    05:00 +13°C° 0 mm 6 m/s 753 mmHg 80%
    06:00 +11°C° 0 mm 7 m/s 753 mmHg 77%
    07:00 +12°C° 0 mm 7 m/s 754 mmHg 71%
    08:00 +14°C° 0 mm 7 m/s 755 mmHg 65%
    09:00 +14°C° 0 mm 7 m/s 755 mmHg 59%
    10:00 +15°C° 0 mm 7 m/s 755 mmHg 56%
    11:00 +16°C° 0 mm 7 m/s 756 mmHg 53%
    12:00 +16°C° 0 mm 7 m/s 756 mmHg 49%
    13:00 +16°C° 0 mm 7 m/s 756 mmHg 49%
    14:00 +16°C° 0 mm 7 m/s 757 mmHg 49%
    15:00 +17°C° 0 mm 7 m/s 757 mmHg 48%
    16:00 +16°C° 0 mm 6 m/s 757 mmHg 51%
    17:00 +16°C° 0 mm 6 m/s 757 mmHg 54%
    18:00 +15°C° 0 mm 5 m/s 757 mmHg 57%
    19:00 +13°C° 0 mm 4 m/s 758 mmHg 58%
    20:00 +12°C° 0 mm 4 m/s 758 mmHg 59%
    21:00 +10°C° 0 mm 3 m/s 759 mmHg 60%
    22:00 +10°C° 0 mm 3 m/s 759 mmHg 62%
    23:00 +9°C° 0 mm 3 m/s 760 mmHg 63%

    26 Mai, Samedi

    Heure Température Précipitation Vent Pression Humidité
    00:00 +8°C° 0 mm 3 m/s 760 mmHg 64%
    01:00 +8°C° 0 mm 3 m/s 760 mmHg 66%
    02:00 +7°C° 0 mm 3 m/s 761 mmHg 68%
    03:00 +7°C° 0 mm 2 m/s 761 mmHg 70%
    04:00 +7°C° 0 mm 2 m/s 761 mmHg 70%
    05:00 +8°C° 0 mm 2 m/s 762 mmHg 71%
    06:00 +9°C° 0 mm 2 m/s 762 mmHg 72%
    07:00 +10°C° 0 mm 2 m/s 762 mmHg 65%
    08:00 +13°C° 0 mm 2 m/s 763 mmHg 58%
    09:00 +15°C° 0 mm 2 m/s 763 mmHg 51%
    10:00 +16°C° 0 mm 2 m/s 763 mmHg 50%
    11:00 +17°C° 0 mm 2 m/s 763 mmHg 48%
    12:00 +18°C° 0 mm 2 m/s 763 mmHg 46%
    13:00 +19°C° 0 mm 2 m/s 762 mmHg 47%
    14:00 +19°C° 0 mm 2 m/s 762 mmHg 47%
    15:00 +19°C° 0 mm 2 m/s 762 mmHg 48%
    16:00 +19°C° 0 mm 2 m/s 762 mmHg 50%
    17:00 +21°C° 0 mm 1 m/s 761 mmHg 53%
    18:00 +21°C° 0 mm 1 m/s 761 mmHg 56%
    19:00 +19°C° 0 mm 1 m/s 761 mmHg 61%
    20:00 +16°C° 0 mm 2 m/s 761 mmHg 67%
    21:00 +14°C° 0 mm 2 m/s 761 mmHg 72%
    22:00 +13°C° 0 mm 2 m/s 761 mmHg 75%
    23:00 +13°C° 0 mm 2 m/s 761 mmHg 78%

    27 Mai, Dimanche

    Heure Température Précipitation Vent Pression Humidité
    00:00 +11°C° 0 mm 3 m/s 761 mmHg 80%
    01:00 +11°C° 0 mm 3 m/s 761 mmHg 82%
    02:00 +11°C° 0 mm 3 m/s 761 mmHg 84%
    03:00 +10°C° 0 mm 3 m/s 761 mmHg 86%
    04:00 +11°C° 0 mm 3 m/s 761 mmHg 85%
    05:00 +12°C° 0 mm 3 m/s 761 mmHg 84%
    06:00 +12°C° 0 mm 3 m/s 761 mmHg 82%
    07:00 +14°C° 0 mm 3 m/s 761 mmHg 77%
    08:00 +17°C° 0 mm 3 m/s 760 mmHg 71%
    09:00 +19°C° 0 mm 4 m/s 760 mmHg 66%
    10:00 +20°C° 0 mm 4 m/s 760 mmHg 61%
    11:00 +21°C° 0 mm 5 m/s 759 mmHg 57%
    12:00 +23°C° 0 mm 6 m/s 759 mmHg 53%
    13:00 +23°C° 0 mm 6 m/s 758 mmHg 53%
    14:00 +23°C° 0 mm 6 m/s 758 mmHg 54%
    15:00 +23°C° 0 mm 7 m/s 757 mmHg 55%
    16:00 +23°C° 0 mm 6 m/s 757 mmHg 59%
    17:00 +22°C° 0 mm 5 m/s 756 mmHg 63%
    18:00 +22°C° 0 mm 5 m/s 756 mmHg 67%
    19:00 +20°C° 0 mm 5 m/s 756 mmHg 70%
    20:00 +19°C° 0 mm 5 m/s 756 mmHg 74%
    21:00 +17°C° 0 mm 4 m/s 756 mmHg 77%
    22:00 +17°C° 0,1 mm 4 m/s 756 mmHg 81%
    23:00 +15°C° 0,1 mm 4 m/s 756 mmHg 84%
    Voir plus